AAY46 KSHV-KAUS

Flight info

Callsign AAY46
Flight time 0h 52m
Altitude 26000
Route GABOO SEWZY6
Aircraft A319/M-SDE3FGHIRWY/LB1

Departure

Time 2026-04-25 01:59
Airport Shreveport Regional Airport (KSHV)

Arrival

Time 2026-04-25 02:51
Airport Austin Bergstrom International Airport (KAUS)
Time Latitude Longitude Altitude Speed Heading
2026-04-25 01:28 32.45264 -93.82966 262 ft 0 kts 13°
2026-04-25 01:51 32.45260 -93.82968 261 ft 3 kts 13°
2026-04-25 01:51 32.45241 -93.82973 261 ft 3 kts 13°
2026-04-25 01:51 32.45222 -93.82978 261 ft 3 kts 13°
2026-04-25 01:52 32.45203 -93.82983 260 ft 3 kts 13°
2026-04-25 01:52 32.45191 -93.82986 260 ft 0 kts 13°
2026-04-25 01:55 32.45195 -93.82987 260 ft 1 kts 353°
2026-04-25 01:55 32.45209 -93.83003 261 ft 5 kts 313°
2026-04-25 01:55 32.45240 -93.83037 262 ft 6 kts 319°
2026-04-25 01:56 32.45271 -93.83066 263 ft 6 kts 323°
2026-04-25 01:56 32.45304 -93.83094 264 ft 7 kts 324°
2026-04-25 01:56 32.45344 -93.83131 265 ft 8 kts 322°
2026-04-25 01:56 32.45385 -93.83169 267 ft 7 kts 322°
2026-04-25 01:57 32.45384 -93.83265 270 ft 6 kts 268°
2026-04-25 01:57 32.45407 -93.83304 270 ft 6 kts 319°
2026-04-25 01:57 32.45441 -93.83349 271 ft 8 kts 294°
2026-04-25 01:58 32.45423 -93.83412 270 ft 9 kts 232°
2026-04-25 01:58 32.45366 -93.83461 268 ft 12 kts 178°
2026-04-25 01:58 32.45285 -93.83402 267 ft 16 kts 142°
2026-04-25 01:58 32.45023 -93.83163 255 ft 88 kts 143°
2026-04-25 01:59 32.44341 -93.82557 306 ft 146 kts 143°
2026-04-25 01:59 32.43549 -93.81838 913 ft 144 kts 141°
2026-04-25 01:59 32.42749 -93.81139 1641 ft 143 kts 143°
2026-04-25 01:59 32.41908 -93.80483 2271 ft 150 kts 148°
2026-04-25 02:00 32.40996 -93.79701 2657 ft 174 kts 149°
2026-04-25 02:00 32.39805 -93.79299 3070 ft 188 kts 186°
2026-04-25 02:00 32.38562 -93.79929 3332 ft 211 kts 224°
2026-04-25 02:00 32.37648 -93.81415 3767 ft 235 kts 243°
2026-04-25 02:01 32.36945 -93.83216 4431 ft 253 kts 248°
2026-04-25 02:01 32.36276 -93.85169 5355 ft 259 kts 249°
2026-04-25 02:01 32.35605 -93.87162 6383 ft 263 kts 249°
2026-04-25 02:01 32.34900 -93.89168 7391 ft 265 kts 249°
2026-04-25 02:02 32.34165 -93.91176 8412 ft 267 kts 248°
2026-04-25 02:02 32.33398 -93.93188 9433 ft 269 kts 248°
2026-04-25 02:02 32.32609 -93.95218 10301 ft 277 kts 248°
2026-04-25 02:02 32.31770 -93.97359 10780 ft 295 kts 248°
2026-04-25 02:03 32.30889 -93.99580 11574 ft 301 kts 248°
2026-04-25 02:03 32.29992 -94.01824 12485 ft 303 kts 248°
2026-04-25 02:03 32.29087 -94.04083 13399 ft 305 kts 248°
2026-04-25 02:03 32.28176 -94.06361 14213 ft 308 kts 248°
2026-04-25 02:04 32.27260 -94.08660 14985 ft 311 kts 248°
2026-04-25 02:04 32.26332 -94.10988 15741 ft 315 kts 248°
2026-04-25 02:04 32.25393 -94.13340 16481 ft 319 kts 248°
2026-04-25 02:04 32.24438 -94.15727 17220 ft 323 kts 248°
2026-04-25 02:05 32.23474 -94.18140 17955 ft 327 kts 248°
2026-04-25 02:05 32.22496 -94.20590 18598 ft 331 kts 248°
2026-04-25 02:05 32.21506 -94.23069 19225 ft 335 kts 248°
2026-04-25 02:05 32.20504 -94.25574 19859 ft 339 kts 248°
2026-04-25 02:06 32.19505 -94.28075 20481 ft 343 kts 248°
2026-04-25 02:06 32.18479 -94.30640 21094 ft 348 kts 248°
2026-04-25 02:06 32.17437 -94.33238 21715 ft 352 kts 248°
2026-04-25 02:06 32.16383 -94.35862 22326 ft 356 kts 248°
2026-04-25 02:07 32.15317 -94.38516 22934 ft 360 kts 248°
2026-04-25 02:07 32.14238 -94.41199 23501 ft 364 kts 248°
2026-04-25 02:07 32.13146 -94.43913 24015 ft 368 kts 249°
2026-04-25 02:07 32.12043 -94.46646 24550 ft 370 kts 249°
2026-04-25 02:08 32.10934 -94.49394 25087 ft 372 kts 249°
2026-04-25 02:08 32.09819 -94.52154 25583 ft 374 kts 249°
2026-04-25 02:08 32.08705 -94.54925 25756 ft 374 kts 249°
2026-04-25 02:08 32.07604 -94.57651 25798 ft 360 kts 249°
2026-04-25 02:09 32.06541 -94.60253 25800 ft 345 kts 250°
2026-04-25 02:09 32.05512 -94.62770 25797 ft 338 kts 250°
2026-04-25 02:09 32.04510 -94.65228 25800 ft 336 kts 250°
2026-04-25 02:09 32.03489 -94.67742 25802 ft 335 kts 250°
2026-04-25 02:10 32.02495 -94.70194 25794 ft 335 kts 250°
2026-04-25 02:10 32.01494 -94.72673 25795 ft 335 kts 250°
2026-04-25 02:10 32.00494 -94.75153 25796 ft 335 kts 250°
2026-04-25 02:10 31.99493 -94.77629 25796 ft 335 kts 250°
2026-04-25 02:11 31.98491 -94.80104 25797 ft 335 kts 250°
2026-04-25 02:11 31.97485 -94.82582 25800 ft 335 kts 250°
2026-04-25 02:11 31.96477 -94.85056 25798 ft 335 kts 250°
2026-04-25 02:11 31.95469 -94.87524 25800 ft 334 kts 250°
2026-04-25 02:12 31.94461 -94.89991 25800 ft 334 kts 250°
2026-04-25 02:12 31.93453 -94.92459 25800 ft 334 kts 250°
2026-04-25 02:12 31.92460 -94.94891 25802 ft 334 kts 250°
2026-04-25 02:12 31.91454 -94.97352 25782 ft 334 kts 250°
2026-04-25 02:13 31.90447 -94.99815 25779 ft 333 kts 250°
2026-04-25 02:13 31.89445 -95.02270 25776 ft 333 kts 250°
2026-04-25 02:13 31.88439 -95.04726 25771 ft 333 kts 250°
2026-04-25 02:13 31.87436 -95.07178 25767 ft 333 kts 250°
2026-04-25 02:14 31.86434 -95.09627 25762 ft 332 kts 250°
2026-04-25 02:14 31.85429 -95.12080 25762 ft 332 kts 250°
2026-04-25 02:14 31.84427 -95.14524 25766 ft 332 kts 250°
2026-04-25 02:14 31.83423 -95.16968 25760 ft 332 kts 250°
2026-04-25 02:15 31.82415 -95.19413 25760 ft 332 kts 250°
2026-04-25 02:15 31.81409 -95.21855 25763 ft 332 kts 250°
2026-04-25 02:15 31.80404 -95.24293 25766 ft 331 kts 250°
2026-04-25 02:15 31.79399 -95.26731 25764 ft 331 kts 250°
2026-04-25 02:16 31.78395 -95.29164 25762 ft 331 kts 250°
2026-04-25 02:16 31.77391 -95.31601 25766 ft 331 kts 250°
2026-04-25 02:16 31.76385 -95.34035 25766 ft 331 kts 250°
2026-04-25 02:16 31.75378 -95.36466 25767 ft 331 kts 249°
2026-04-25 02:17 31.74371 -95.38899 25769 ft 331 kts 249°
2026-04-25 02:17 31.73377 -95.41298 25770 ft 331 kts 249°
2026-04-25 02:17 31.72370 -95.43727 25769 ft 331 kts 249°
2026-04-25 02:17 31.71364 -95.46152 25777 ft 330 kts 249°
2026-04-25 02:18 31.70358 -95.48581 25778 ft 330 kts 249°
2026-04-25 02:18 31.69352 -95.51011 25780 ft 330 kts 249°
2026-04-25 02:18 31.68349 -95.53429 25776 ft 330 kts 249°
2026-04-25 02:18 31.67346 -95.55849 25776 ft 330 kts 249°
2026-04-25 02:19 31.66342 -95.58268 25777 ft 330 kts 249°
2026-04-25 02:19 31.65338 -95.60687 25773 ft 329 kts 249°
2026-04-25 02:19 31.64332 -95.63110 25773 ft 330 kts 249°
2026-04-25 02:19 31.63326 -95.65524 25774 ft 330 kts 249°
2026-04-25 02:20 31.62329 -95.67909 25774 ft 329 kts 249°
2026-04-25 02:20 31.61322 -95.70323 25774 ft 329 kts 249°
2026-04-25 02:20 31.60316 -95.72736 25773 ft 329 kts 249°
2026-04-25 02:20 31.59308 -95.75151 25774 ft 329 kts 249°
2026-04-25 02:21 31.58300 -95.77561 25678 ft 329 kts 249°
2026-04-25 02:21 31.57289 -95.79982 25428 ft 331 kts 249°
2026-04-25 02:21 31.56275 -95.82410 25189 ft 332 kts 249°
2026-04-25 02:21 31.55260 -95.84840 24953 ft 332 kts 249°
2026-04-25 02:22 31.54245 -95.87266 24716 ft 331 kts 249°
2026-04-25 02:22 31.53229 -95.89685 24488 ft 331 kts 249°
2026-04-25 02:22 31.52213 -95.92102 24255 ft 330 kts 249°
2026-04-25 02:22 31.51539 -95.93701 24102 ft 330 kts 249°
2026-04-25 02:23 31.50523 -95.96114 23876 ft 329 kts 249°
2026-04-25 02:23 31.49511 -95.98522 23646 ft 329 kts 249°
2026-04-25 02:23 31.48499 -96.00927 23423 ft 329 kts 249°
2026-04-25 02:23 31.47490 -96.03326 23169 ft 328 kts 249°
2026-04-25 02:24 31.46483 -96.05717 22895 ft 327 kts 248°
2026-04-25 02:24 31.45478 -96.08101 22623 ft 326 kts 248°
2026-04-25 02:24 31.44477 -96.10477 22369 ft 324 kts 248°
2026-04-25 02:24 31.43479 -96.12841 22113 ft 323 kts 248°
2026-04-25 02:25 31.42487 -96.15192 21850 ft 322 kts 248°
2026-04-25 02:25 31.41497 -96.17537 21595 ft 320 kts 248°
2026-04-25 02:25 31.40510 -96.19870 21341 ft 319 kts 248°
2026-04-25 02:25 31.39528 -96.22192 21091 ft 318 kts 248°
2026-04-25 02:26 31.38547 -96.24508 20841 ft 317 kts 248°
2026-04-25 02:26 31.37572 -96.26810 20593 ft 315 kts 248°
2026-04-25 02:26 31.36612 -96.29077 20352 ft 314 kts 247°
2026-04-25 02:26 31.35641 -96.31363 20107 ft 313 kts 247°
2026-04-25 02:27 31.34674 -96.33639 19866 ft 312 kts 247°
2026-04-25 02:27 31.33710 -96.35910 19626 ft 311 kts 247°
2026-04-25 02:27 31.32749 -96.38172 19384 ft 310 kts 247°
2026-04-25 02:27 31.31789 -96.40427 19151 ft 309 kts 247°
2026-04-25 02:28 31.30833 -96.42670 18923 ft 308 kts 246°
2026-04-25 02:28 31.29880 -96.44907 18687 ft 307 kts 246°
2026-04-25 02:28 31.28932 -96.47133 18454 ft 306 kts 246°
2026-04-25 02:28 31.27985 -96.49354 18225 ft 305 kts 246°
2026-04-25 02:29 31.27041 -96.51568 17985 ft 304 kts 246°
2026-04-25 02:29 31.26100 -96.53774 17720 ft 303 kts 246°
2026-04-25 02:29 31.25164 -96.55973 17455 ft 302 kts 246°
2026-04-25 02:29 31.24230 -96.58167 17208 ft 301 kts 246°
2026-04-25 02:30 31.23299 -96.60349 16946 ft 300 kts 246°
2026-04-25 02:30 31.22367 -96.62527 16687 ft 299 kts 246°
2026-04-25 02:30 31.21447 -96.64674 16440 ft 298 kts 246°
2026-04-25 02:30 31.20519 -96.66836 16190 ft 298 kts 246°
2026-04-25 02:31 31.19592 -96.68994 15938 ft 297 kts 246°
2026-04-25 02:31 31.18669 -96.71149 15689 ft 296 kts 246°
2026-04-25 02:31 31.17749 -96.73296 15448 ft 295 kts 245°
2026-04-25 02:31 31.16830 -96.75435 15205 ft 294 kts 245°
2026-04-25 02:32 31.15911 -96.77568 14961 ft 294 kts 245°
2026-04-25 02:32 31.14994 -96.79701 14721 ft 293 kts 245°
2026-04-25 02:32 31.14084 -96.81825 14485 ft 292 kts 245°
2026-04-25 02:32 31.13176 -96.83944 14248 ft 292 kts 245°
2026-04-25 02:33 31.12267 -96.86055 14020 ft 291 kts 245°
2026-04-25 02:33 31.11359 -96.88163 13789 ft 290 kts 245°
2026-04-25 02:33 31.10452 -96.90267 13554 ft 290 kts 245°
2026-04-25 02:33 31.09543 -96.92365 13292 ft 289 kts 245°
2026-04-25 02:34 31.08639 -96.94453 13037 ft 288 kts 245°
2026-04-25 02:34 31.07741 -96.96530 12945 ft 284 kts 245°
2026-04-25 02:34 31.06854 -96.98586 12977 ft 288 kts 245°
2026-04-25 02:34 31.05955 -97.00672 12980 ft 288 kts 245°
2026-04-25 02:35 31.05056 -97.02760 12979 ft 288 kts 245°
2026-04-25 02:35 31.04152 -97.04854 12980 ft 288 kts 245°
2026-04-25 02:35 31.03248 -97.06945 12981 ft 289 kts 245°
2026-04-25 02:35 31.02347 -97.09033 12981 ft 289 kts 245°
2026-04-25 02:36 31.01442 -97.11125 12988 ft 289 kts 245°
2026-04-25 02:36 31.00536 -97.13214 12989 ft 289 kts 245°
2026-04-25 02:36 30.99628 -97.15303 12993 ft 289 kts 245°
2026-04-25 02:36 30.98721 -97.17390 12995 ft 289 kts 245°
2026-04-25 02:37 30.97812 -97.19480 12989 ft 289 kts 245°
2026-04-25 02:37 30.96904 -97.21567 12993 ft 289 kts 245°
2026-04-25 02:37 30.96006 -97.23630 12991 ft 289 kts 245°
2026-04-25 02:37 30.95095 -97.25722 12999 ft 289 kts 245°
2026-04-25 02:38 30.94187 -97.27812 12998 ft 289 kts 245°
2026-04-25 02:38 30.93222 -97.29870 12993 ft 291 kts 237°
2026-04-25 02:38 30.91842 -97.31600 12997 ft 295 kts 221°
2026-04-25 02:38 30.90058 -97.32823 12756 ft 300 kts 205°
2026-04-25 02:39 30.88076 -97.33604 12502 ft 300 kts 202°
2026-04-25 02:39 30.86096 -97.34366 12247 ft 299 kts 202°
2026-04-25 02:39 30.84123 -97.35130 12003 ft 298 kts 202°
2026-04-25 02:39 30.82159 -97.35895 11756 ft 297 kts 202°
2026-04-25 02:40 30.80266 -97.36822 11517 ft 294 kts 210°
2026-04-25 02:40 30.78438 -97.37874 11268 ft 293 kts 210°
2026-04-25 02:40 30.76617 -97.38919 11047 ft 292 kts 210°
2026-04-25 02:40 30.74794 -97.39960 10804 ft 291 kts 210°
2026-04-25 02:41 30.72977 -97.40996 10569 ft 290 kts 210°
2026-04-25 02:41 30.71166 -97.42028 10336 ft 290 kts 209°
2026-04-25 02:41 30.69358 -97.43056 10105 ft 289 kts 209°
2026-04-25 02:41 30.67556 -97.44084 9916 ft 288 kts 209°
2026-04-25 02:42 30.65779 -97.45094 9798 ft 280 kts 209°
2026-04-25 02:42 30.64064 -97.46064 9690 ft 276 kts 209°
2026-04-25 02:42 30.62339 -97.47044 9413 ft 276 kts 209°
2026-04-25 02:42 30.60615 -97.48026 9021 ft 275 kts 209°
2026-04-25 02:43 30.58897 -97.49003 8598 ft 275 kts 209°
2026-04-25 02:43 30.57190 -97.49972 8349 ft 268 kts 209°
2026-04-25 02:43 30.55539 -97.50910 8100 ft 262 kts 210°
2026-04-25 02:43 30.53909 -97.51840 7756 ft 260 kts 209°
2026-04-25 02:44 30.52286 -97.52762 7388 ft 260 kts 209°
2026-04-25 02:44 30.50689 -97.53668 7197 ft 252 kts 209°
2026-04-25 02:44 30.49127 -97.54553 6890 ft 249 kts 209°
2026-04-25 02:44 30.47595 -97.55422 6560 ft 248 kts 209°
2026-04-25 02:45 30.46042 -97.56303 6217 ft 248 kts 209°
2026-04-25 02:45 30.44518 -97.57170 5871 ft 247 kts 210°
2026-04-25 02:45 30.43148 -97.58294 5658 ft 235 kts 227°
2026-04-25 02:45 30.42015 -97.59621 5399 ft 231 kts 228°
2026-04-25 02:46 30.40861 -97.60973 4879 ft 239 kts 227°
2026-04-25 02:46 30.39694 -97.62338 4470 ft 237 kts 226°
2026-04-25 02:46 30.38554 -97.63667 4102 ft 228 kts 226°
2026-04-25 02:46 30.37314 -97.64765 3639 ft 224 kts 215°
2026-04-25 02:47 30.36030 -97.65776 3180 ft 219 kts 213°
2026-04-25 02:47 30.34817 -97.66728 3001 ft 203 kts 214°
2026-04-25 02:47 30.33699 -97.67604 2869 ft 186 kts 213°
2026-04-25 02:47 30.32547 -97.68150 2683 ft 174 kts 192°
2026-04-25 02:48 30.31384 -97.68200 2442 ft 161 kts 180°
2026-04-25 02:48 30.30309 -97.68171 2251 ft 148 kts 180°
2026-04-25 02:48 30.29338 -97.68146 2075 ft 131 kts 180°
2026-04-25 02:48 30.28464 -97.68123 1914 ft 121 kts 180°
2026-04-25 02:49 30.27635 -97.68102 1758 ft 117 kts 179°
2026-04-25 02:49 30.26825 -97.68081 1614 ft 116 kts 180°
2026-04-25 02:49 30.26017 -97.68060 1472 ft 117 kts 180°
2026-04-25 02:49 30.25199 -97.68035 1350 ft 119 kts 179°
2026-04-25 02:50 30.24375 -97.68011 1201 ft 120 kts 179°
2026-04-25 02:50 30.23539 -97.67980 997 ft 119 kts 179°
2026-04-25 02:50 30.22706 -97.67967 857 ft 121 kts 179°
2026-04-25 02:50 30.21855 -97.67946 683 ft 123 kts 178°
2026-04-25 02:51 30.21011 -97.67931 551 ft 119 kts 178°
2026-04-25 02:51 30.20301 -97.67909 528 ft 85 kts 179°
2026-04-25 02:51 30.19847 -97.67897 527 ft 45 kts 179°
2026-04-25 02:51 30.19562 -97.67886 527 ft 36 kts 173°
2026-04-25 02:52 30.19401 -97.67776 528 ft 19 kts 111°
2026-04-25 02:52 30.19394 -97.67683 528 ft 0 kts 89°
2026-04-25 02:52 30.19394 -97.67675 528 ft 2 kts 89°
2026-04-25 02:53 30.19395 -97.67637 528 ft 9 kts 89°
2026-04-25 02:53 30.19397 -97.67534 528 ft 17 kts 88°
2026-04-25 02:53 30.19400 -97.67401 528 ft 16 kts 88°
2026-04-25 02:53 30.19403 -97.67283 528 ft 14 kts 89°
2026-04-25 02:54 30.19446 -97.67216 528 ft 11 kts 21°
2026-04-25 02:54 30.19470 -97.67133 528 ft 10 kts 89°
2026-04-25 02:54 30.19458 -97.67062 528 ft 7 kts 136°
2026-04-25 02:54 30.19413 -97.67053 528 ft 5 kts 178°
2026-04-25 02:55 30.19403 -97.67052 528 ft 0 kts 178°